Time,TemperatureF,DewpointF,PressureIn,WindDirection,WindDirectionDegrees,WindSpeedMPH,WindSpeedGustMPH,Humidity,HourlyPrecipIn,Conditions,Clouds,dailyrainin,SoftwareType,DateUTC
2013-06-25 00:01:00,71.0,67.0,-100.00,WSW,257,2.0,6.0,87,0.00,,,0.00,,2013-06-25 05:01:00,
2013-06-25 00:11:00,71.0,67.0,-100.00,WSW,257,2.0,6.0,87,0.00,,,0.00,,2013-06-25 05:11:00,
2013-06-25 00:22:00,71.0,67.0,-100.00,WSW,257,2.0,6.0,87,0.00,,,0.00,,2013-06-25 05:22:00,
2013-06-25 00:52:00,70.0,67.0,-100.00,South,182,2.0,7.0,91,0.00,,,0.00,,2013-06-25 05:52:00,
2013-06-25 01:01:00,70.0,67.0,-100.00,South,182,2.0,7.0,91,0.00,,,0.00,,2013-06-25 06:01:00,
2013-06-25 01:11:00,70.0,67.0,-100.00,South,182,2.0,7.0,91,0.00,,,0.00,,2013-06-25 06:11:00,
2013-06-25 01:22:00,70.0,67.0,-100.00,South,182,2.0,7.0,91,0.00,,,0.00,,2013-06-25 06:22:00,
2013-06-25 01:52:00,71.0,68.0,-100.00,WSW,237,5.0,7.0,91,0.00,,,0.00,,2013-06-25 06:52:00,
2013-06-25 02:02:00,71.0,68.0,-100.00,WSW,237,5.0,7.0,91,0.00,,,0.00,,2013-06-25 07:02:00,
2013-06-25 02:11:00,71.0,68.0,-100.00,WSW,237,5.0,7.0,91,0.00,,,0.00,,2013-06-25 07:11:00,
2013-06-25 02:22:00,71.0,68.0,-100.00,WSW,237,5.0,7.0,91,0.00,,,0.00,,2013-06-25 07:22:00,
2013-06-25 02:52:00,69.0,68.0,-100.00,SW,235,5.0,11.0,95,0.05,,,0.05,,2013-06-25 07:52:00,
2013-06-25 03:01:00,69.0,68.0,-100.00,SW,235,5.0,11.0,95,0.05,,,0.05,,2013-06-25 08:01:00,
2013-06-25 03:11:00,69.0,68.0,-100.00,SW,235,5.0,11.0,95,0.05,,,0.05,,2013-06-25 08:11:00,
2013-06-25 03:21:00,69.0,68.0,-100.00,SW,235,5.0,11.0,95,0.05,,,0.05,,2013-06-25 08:21:00,
2013-06-25 03:53:00,68.0,67.0,-100.00,SSE,162,8.0,11.0,96,0.15,,,0.20,,2013-06-25 08:53:00,
2013-06-25 04:02:00,68.0,67.0,-100.00,SSE,162,8.0,11.0,96,0.15,,,0.20,,2013-06-25 09:02:00,
2013-06-25 04:12:00,68.0,67.0,-100.00,SSE,162,8.0,11.0,96,0.15,,,0.20,,2013-06-25 09:12:00,
2013-06-25 04:22:00,68.0,67.0,-100.00,SSE,162,8.0,11.0,96,0.15,,,0.20,,2013-06-25 09:22:00,
2013-06-25 04:53:00,67.0,66.0,-100.00,SW,235,5.0,11.0,97,0.03,,,0.23,,2013-06-25 09:53:00,
2013-06-25 05:01:00,67.0,66.0,-100.00,SW,235,5.0,11.0,97,0.03,,,0.23,,2013-06-25 10:01:00,
2013-06-25 05:11:00,67.0,66.0,-100.00,SW,235,5.0,11.0,97,0.03,,,0.23,,2013-06-25 10:11:00,
2013-06-25 05:21:00,67.0,66.0,-100.00,SW,235,5.0,11.0,97,0.03,,,0.23,,2013-06-25 10:21:00,
2013-06-25 05:52:00,67.0,66.0,-100.00,South,189,7.0,13.0,98,0.03,,,0.26,,2013-06-25 10:52:00,
2013-06-25 06:02:00,67.0,66.0,-100.00,South,189,7.0,13.0,98,0.03,,,0.26,,2013-06-25 11:02:00,
2013-06-25 06:12:00,67.0,66.0,-100.00,South,189,7.0,13.0,98,0.03,,,0.26,,2013-06-25 11:12:00,
2013-06-25 06:22:00,67.0,66.0,-100.00,South,189,7.0,13.0,98,0.03,,,0.26,,2013-06-25 11:22:00,
2013-06-25 06:52:00,67.0,66.0,-100.00,South,186,7.0,15.0,98,0.04,,,0.30,,2013-06-25 11:52:00,
2013-06-25 07:02:00,67.0,66.0,-100.00,South,186,7.0,15.0,98,0.04,,,0.30,,2013-06-25 12:02:00,
2013-06-25 07:11:00,67.0,66.0,-100.00,South,186,7.0,15.0,98,0.04,,,0.30,,2013-06-25 12:11:00,
2013-06-25 07:22:00,67.0,66.0,-100.00,South,186,7.0,15.0,98,0.04,,,0.30,,2013-06-25 12:22:00,
2013-06-25 07:55:00,68.0,66.0,-100.00,West,274,5.0,12.0,93,0.00,,,0.30,,2013-06-25 12:55:00,
2013-06-25 08:02:00,68.0,66.0,-100.00,West,274,5.0,12.0,93,0.00,,,0.30,,2013-06-25 13:02:00,
2013-06-25 08:12:00,68.0,66.0,-100.00,West,274,5.0,12.0,93,0.00,,,0.30,,2013-06-25 13:12:00,
2013-06-25 08:22:00,68.0,66.0,-100.00,West,274,5.0,12.0,93,0.00,,,0.30,,2013-06-25 13:22:00,
2013-06-25 08:53:00,69.0,66.0,-100.00,WSW,250,4.0,12.0,89,0.00,,,0.30,,2013-06-25 13:53:00,
2013-06-25 09:01:00,69.0,66.0,-100.00,WSW,250,4.0,12.0,89,0.00,,,0.30,,2013-06-25 14:01:00,
2013-06-25 09:11:00,69.0,66.0,-100.00,WSW,250,4.0,12.0,89,0.00,,,0.30,,2013-06-25 14:11:00,
2013-06-25 09:23:00,69.0,66.0,-100.00,WSW,250,4.0,12.0,89,0.00,,,0.30,,2013-06-25 14:23:00,
2013-06-25 09:53:00,68.0,65.0,-100.00,SW,225,7.0,12.0,90,0.00,,,0.30,,2013-06-25 14:53:00,
2013-06-25 10:02:00,68.0,65.0,-100.00,SW,225,7.0,12.0,90,0.00,,,0.30,,2013-06-25 15:02:00,
2013-06-25 10:11:00,68.0,65.0,-100.00,SW,225,7.0,12.0,90,0.00,,,0.30,,2013-06-25 15:11:00,
2013-06-25 10:22:00,68.0,65.0,-100.00,SW,225,7.0,12.0,90,0.00,,,0.30,,2013-06-25 15:22:00,
2013-06-25 11:52:00,71.0,68.0,-100.00,SSW,193,6.0,17.0,89,-99.99,,,0.39,,2013-06-25 16:52:00,
2013-06-25 12:01:00,71.0,68.0,-100.00,SSW,193,6.0,17.0,89,-99.99,,,0.39,,2013-06-25 17:01:00,
2013-06-25 12:11:00,71.0,68.0,-100.00,SSW,193,6.0,17.0,89,-99.99,,,0.39,,2013-06-25 17:11:00,
2013-06-25 12:22:00,71.0,68.0,-100.00,SSW,193,6.0,17.0,89,-99.99,,,0.39,,2013-06-25 17:22:00,
2013-06-25 12:53:00,73.0,68.0,-100.00,SSW,201,5.0,15.0,85,0.00,,,0.39,,2013-06-25 17:53:00,
2013-06-25 13:02:00,73.0,68.0,-100.00,SSW,201,5.0,15.0,85,0.00,,,0.39,,2013-06-25 18:02:00,
2013-06-25 13:12:00,73.0,68.0,-100.00,SSW,201,5.0,15.0,85,0.00,,,0.39,,2013-06-25 18:12:00,
2013-06-25 13:22:00,73.0,68.0,-100.00,SSW,201,5.0,15.0,85,0.00,,,0.39,,2013-06-25 18:22:00,
2013-06-25 13:53:00,77.0,69.0,-100.00,SSW,212,6.0,12.0,77,0.00,,,0.39,,2013-06-25 18:53:00,
2013-06-25 14:01:00,77.0,69.0,-100.00,SSW,212,6.0,12.0,77,0.00,,,0.39,,2013-06-25 19:01:00,
2013-06-25 14:12:00,77.0,69.0,-100.00,SSW,212,6.0,12.0,77,0.00,,,0.39,,2013-06-25 19:12:00,
2013-06-25 14:22:00,77.0,69.0,-100.00,SSW,212,6.0,12.0,77,0.00,,,0.39,,2013-06-25 19:22:00,
2013-06-25 14:54:00,74.0,70.0,-100.00,WSW,248,3.0,15.0,87,0.05,,,0.44,,2013-06-25 19:54:00,
2013-06-25 15:02:00,74.0,70.0,-100.00,WSW,248,3.0,15.0,87,0.05,,,0.44,,2013-06-25 20:02:00,
2013-06-25 15:11:00,74.0,70.0,-100.00,WSW,248,3.0,15.0,87,0.05,,,0.44,,2013-06-25 20:11:00,
2013-06-25 15:22:00,74.0,70.0,-100.00,WSW,248,3.0,15.0,87,0.05,,,0.44,,2013-06-25 20:22:00,
2013-06-25 15:52:00,78.0,69.0,-100.00,NNE,18,3.0,-999.0,75,0.00,,,0.44,,2013-06-25 20:52:00,
2013-06-25 16:01:00,78.0,69.0,-100.00,NNE,18,3.0,-999.0,75,0.00,,,0.44,,2013-06-25 21:01:00,
2013-06-25 16:11:00,78.0,69.0,-100.00,NNE,18,3.0,-999.0,75,0.00,,,0.44,,2013-06-25 21:11:00,
2013-06-25 16:22:00,78.0,69.0,-100.00,NNE,18,3.0,-999.0,75,0.00,,,0.44,,2013-06-25 21:22:00,
2013-06-25 16:53:00,80.0,70.0,-100.00,East,88,4.0,8.0,72,0.00,,,0.44,,2013-06-25 21:53:00,
2013-06-25 17:01:00,80.0,70.0,-100.00,East,88,4.0,8.0,72,0.00,,,0.44,,2013-06-25 22:01:00,
2013-06-25 17:11:00,80.0,70.0,-100.00,East,88,4.0,8.0,72,0.00,,,0.44,,2013-06-25 22:11:00,
2013-06-25 17:22:00,80.0,70.0,-100.00,East,88,4.0,8.0,72,0.00,,,0.44,,2013-06-25 22:22:00,
2013-06-25 17:52:00,83.0,71.0,-100.00,WSW,251,3.0,10.0,68,0.00,,,0.44,,2013-06-25 22:52:00,
2013-06-25 18:01:00,83.0,71.0,-100.00,WSW,251,3.0,10.0,68,0.00,,,0.44,,2013-06-25 23:01:00,
2013-06-25 18:11:00,83.0,71.0,-100.00,WSW,251,3.0,10.0,68,0.00,,,0.44,,2013-06-25 23:11:00,
2013-06-25 18:22:00,83.0,71.0,-100.00,WSW,251,3.0,10.0,68,0.00,,,0.44,,2013-06-25 23:22:00,
2013-06-25 18:52:00,83.0,73.0,-100.00,SE,130,4.0,10.0,71,0.00,,,0.44,,2013-06-25 23:52:00,
2013-06-25 19:02:00,83.0,73.0,-100.00,SE,130,4.0,10.0,71,0.00,,,0.44,,2013-06-26 00:02:00,
2013-06-25 19:11:00,83.0,73.0,-100.00,SE,130,4.0,10.0,71,0.00,,,0.44,,2013-06-26 00:11:00,
2013-06-25 19:22:00,83.0,73.0,-100.00,SE,130,4.0,10.0,71,0.00,,,0.44,,2013-06-26 00:22:00,
2013-06-25 19:53:00,77.0,71.0,-100.00,ESE,121,6.0,8.0,82,0.00,,,0.44,,2013-06-26 00:53:00,
2013-06-25 20:01:00,77.0,71.0,-100.00,ESE,121,6.0,8.0,82,0.00,,,0.44,,2013-06-26 01:01:00,
2013-06-25 20:11:00,77.0,71.0,-100.00,ESE,121,6.0,8.0,82,0.00,,,0.44,,2013-06-26 01:11:00,
2013-06-25 20:22:00,77.0,71.0,-100.00,ESE,121,6.0,8.0,82,0.00,,,0.44,,2013-06-26 01:22:00,
2013-06-25 20:53:00,75.0,71.0,-100.00,SE,128,5.0,11.0,88,0.00,,,0.44,,2013-06-26 01:53:00,
2013-06-25 21:02:00,75.0,71.0,-100.00,SE,128,5.0,11.0,88,0.00,,,0.44,,2013-06-26 02:02:00,
2013-06-25 21:11:00,75.0,71.0,-100.00,SE,128,5.0,11.0,88,0.00,,,0.44,,2013-06-26 02:11:00,
2013-06-25 21:22:00,75.0,71.0,-100.00,SE,128,5.0,11.0,88,0.00,,,0.44,,2013-06-26 02:22:00,
2013-06-25 21:53:00,72.0,69.0,-100.00,SE,136,6.0,10.0,89,0.00,,,0.44,,2013-06-26 02:53:00,
2013-06-25 22:02:00,72.0,69.0,-100.00,SE,136,6.0,10.0,89,0.00,,,0.44,,2013-06-26 03:02:00,
2013-06-25 22:11:00,72.0,69.0,-100.00,SE,136,6.0,10.0,89,0.00,,,0.44,,2013-06-26 03:11:00,
2013-06-25 22:22:00,72.0,69.0,-100.00,SE,136,6.0,10.0,89,0.00,,,0.44,,2013-06-26 03:22:00,
2013-06-25 22:52:00,70.0,67.0,-100.00,SE,143,5.0,8.0,90,0.00,,,0.44,,2013-06-26 03:52:00,
2013-06-25 23:01:00,70.0,67.0,-100.00,SE,143,5.0,8.0,90,0.00,,,0.44,,2013-06-26 04:01:00,
2013-06-25 23:12:00,70.0,67.0,-100.00,SE,143,5.0,8.0,90,0.00,,,0.44,,2013-06-26 04:12:00,
2013-06-25 23:22:00,70.0,67.0,-100.00,SE,143,5.0,8.0,90,0.00,,,0.44,,2013-06-26 04:22:00,
2013-06-25 23:53:00,69.0,67.0,-100.00,SE,135,6.0,8.0,93,0.00,,,0.44,,2013-06-26 04:53:00,